This demonstration page uses our WeatherBlox Daily Observations layout. Learn more.

Left ArrowRight Arrow

Hourly Observations for July 10, 2021

Temp ( °F °C ) Dew Point ( °F °C ) Humidity (%) Winds ( mph kmh ) Pressure ( in mb ) Visibility ( mi km ) Precip ( " mm )
12:15 am 00:15 Partly Cloudy 73 23 64 18 74 74 N N/A 30.00 1016 10 16 N/A
12:35 am 00:35 Mostly Cloudy 72 22 63 17 73 73 N 5 7 30.00 1016 10 16 N/A
12:55 am 00:55 Cloudy 72 22 63 17 73 73 N 5 7 30.00 1016 10 16 N/A
1:15 am 01:15 Mostly Cloudy 70 21 63 17 78 78 NNW 6 9 30.00 1016 10 16 N/A
1:35 am 01:35 Partly Cloudy 70 21 63 17 78 78 NNW 8 13 30.00 1016 10 16 N/A
1:55 am 01:55 Clear 70 21 63 17 78 78 NW 12 19 29.99 1016 10 16 N/A
2:15 am 02:15 Clear 70 21 61 16 73 73 NW 9 15 29.99 1016 10 16 N/A
2:35 am 02:35 Clear 70 21 61 16 73 73 NNW 9 15 29.99 1016 10 16 N/A
2:55 am 02:55 Clear 68 20 61 16 78 78 NNW 9 15 29.99 1016 10 16 N/A
3:15 am 03:15 Clear 68 20 61 16 78 78 NNW 9 15 29.99 1016 10 16 N/A
3:35 am 03:35 Clear 70 21 61 16 73 73 N 7 11 29.98 1015 10 16 N/A
3:55 am 03:55 Clear 68 20 61 16 78 78 N 9 15 29.97 1015 10 16 N/A
4:15 am 04:15 Clear 68 20 59 15 73 73 N 7 11 29.98 1015 10 16 N/A
4:35 am 04:35 Clear 68 20 59 15 73 73 N 8 13 29.99 1016 10 16 N/A
4:55 am 04:55 Clear 68 20 59 15 73 73 N 6 9 29.99 1016 10 16 N/A
5:15 am 05:15 Clear 66 19 59 15 78 78 NNW 7 11 29.99 1016 10 16 N/A
5:35 am 05:35 Clear 66 19 59 15 78 78 NNW 14 22 30.00 1016 10 16 N/A
5:55 am 05:55 Sunny 64 18 59 15 83 83 N 8 13 30.01 1016 10 16 N/A
6:15 am 06:15 Sunny 64 18 59 15 83 83 N 7 11 30.02 1017 10 16 N/A
6:35 am 06:35 Sunny 64 18 59 15 83 83 N 8 13 30.03 1017 10 16 N/A
6:55 am 06:55 Sunny 64 18 59 15 83 83 NNW 8 13 30.04 1017 10 16 N/A
7:15 am 07:15 Sunny 64 18 59 15 83 83 NNW 10 17 30.04 1017 10 16 N/A
7:35 am 07:35 Sunny 64 18 57 14 78 78 NNW 7 11 30.05 1018 10 16 N/A
7:55 am 07:55 Sunny 66 19 59 15 78 78 NNW 9 15 30.05 1018 10 16 N/A
8:15 am 08:15 Sunny 68 20 59 15 73 73 NNW 12 19 30.05 1018 10 16 N/A
8:35 am 08:35 Sunny 66 19 59 15 78 78 NNW 9 15 30.05 1018 10 16 N/A
8:55 am 08:55 Sunny 68 20 57 14 69 69 N 8 13 30.05 1018 10 16 N/A
9:15 am 09:15 Sunny 68 20 59 15 73 73 N 12 19 30.05 1018 10 16 N/A
9:35 am 09:35 Sunny 70 21 59 15 69 69 NNW 12 19 30.05 1018 10 16 N/A
9:55 am 09:55 Sunny 70 21 59 15 69 69 NNW 8 13 30.05 1018 10 16 N/A
10:15 am 10:15 Sunny 70 21 59 15 69 69 NW 8 13 30.06 1018 10 16 N/A
10:35 am 10:35 Sunny 72 22 61 16 69 69 NNW 7 11 30.06 1018 10 16 N/A
10:55 am 10:55 Sunny 72 22 59 15 65 65 N N/A 30.07 1018 10 16 N/A
11:15 am 11:15 Sunny 72 22 59 15 65 65 NW 8 13 30.07 1018 10 16 N/A
11:35 am 11:35 Partly Cloudy 73 23 61 16 65 65 NNW 8 13 30.08 1019 10 16 N/A
11:55 am 11:55 Partly Cloudy 73 23 61 16 65 65 NNW 13 20 30.09 1019 10 16 N/A
12:15 pm 12:15 Partly Cloudy 73 23 61 16 65 65 N 9 15 30.09 1019 10 16 N/A
12:35 pm 12:35 Partly Cloudy 73 23 61 16 65 65 N 6 9 30.09 1019 10 16 N/A
12:55 pm 12:55 Partly Cloudy 73 23 61 16 65 65 NNW 8 13 30.08 1019 10 16 N/A
1:15 pm 13:15 Partly Cloudy 75 24 61 16 61 61 N 6 9 30.08 1018 10 16 N/A
1:35 pm 13:35 Sunny 77 25 61 16 57 57 N N/A 30.06 1018 10 16 N/A
1:55 pm 13:55 Partly Cloudy 77 25 63 17 61 61 NW 10 17 30.06 1018 10 16 N/A
2:15 pm 14:15 Partly Cloudy 77 25 61 16 57 57 N 9 15 30.05 1018 10 16 N/A
2:35 pm 14:35 Sunny 77 25 61 16 57 57 NW 6 9 30.04 1017 10 16 N/A
2:55 pm 14:55 Sunny 77 25 61 16 57 57 NNW 7 11 30.04 1017 10 16 N/A
3:15 pm 15:15 Partly Cloudy 79 26 61 16 54 54 W 7 11 30.03 1017 10 16 N/A
3:35 pm 15:35 Mostly Cloudy 79 26 63 17 58 58 WNW 3 6 30.03 1017 10 16 N/A
3:55 pm 15:55 Partly Cloudy 79 26 63 17 58 58 W 6 9 30.03 1017 10 16 N/A
4:15 pm 16:15 Partly Cloudy 81 27 61 16 51 51 W 6 9 30.02 1017 10 16 N/A
4:35 pm 16:35 Sunny 81 27 61 16 51 51 NW 6 9 30.02 1017 10 16 N/A
4:55 pm 16:55 Partly Cloudy 81 27 61 16 51 51 WNW 10 17 30.02 1017 10 16 N/A
5:15 pm 17:15 Sunny 81 27 61 16 51 51 N N/A 30.01 1016 10 16 N/A
5:35 pm 17:35 Partly Cloudy 81 27 61 16 51 51 N N/A 30.00 1016 10 16 N/A
5:55 pm 17:55 Partly Cloudy 81 27 61 16 51 51 N 7 11 30.00 1016 10 16 N/A
6:15 pm 18:15 Partly Cloudy 79 26 59 15 51 51 N N/A 30.00 1016 10 16 N/A
6:35 pm 18:35 Sunny 79 26 59 15 51 51 NNW 5 7 29.99 1016 10 16 N/A
6:55 pm 18:55 Sunny 79 26 61 16 54 54 NE 7 11 29.99 1016 10 16 N/A
7:15 pm 19:15 Sunny 79 26 61 16 54 54 ENE 8 13 29.99 1016 10 16 N/A
7:35 pm 19:35 Sunny 77 25 61 16 57 57 ENE 6 9 30.00 1016 10 16 N/A
7:55 pm 19:55 Sunny 77 25 63 17 61 61 E 5 7 30.01 1016 10 16 N/A
8:15 pm 20:15 Sunny 77 25 63 17 61 61 ESE 5 7 30.02 1017 10 16 N/A
8:35 pm 20:35 Sunny 77 25 63 17 61 61 N N/A 30.02 1017 10 16 N/A
8:55 pm 20:55 Clear 77 25 63 17 61 61 ESE 3 6 30.02 1017 10 16 N/A
9:15 pm 21:15 Clear 77 25 63 17 61 61 N N/A 30.03 1017 10 16 N/A
9:35 pm 21:35 Partly Cloudy 77 25 63 17 61 61 N N/A 30.03 1017 10 16 N/A
9:55 pm 21:55 Mostly Cloudy 77 25 63 17 61 61 E 5 7 30.04 1017 10 16 N/A
10:15 pm 22:15 Mostly Cloudy with Haze 77 25 63 17 61 61 ENE 3 6 30.04 1017 5 8 N/A
10:35 pm 22:35 Partly Cloudy 75 24 63 17 65 65 N N/A 30.06 1018 10 16 N/A
10:55 pm 22:55 Mostly Cloudy 75 24 63 17 65 65 N N/A 30.06 1018 10 16 N/A
11:15 pm 23:15 Cloudy 75 24 63 17 65 65 SE 3 6 30.06 1018 10 16 N/A
11:35 pm 23:35 Cloudy 73 23 63 17 69 69 N N/A 30.06 1018 10 16 N/A
11:55 pm 23:55 Cloudy 73 23 63 17 69 69 N N/A 30.07 1018 10 16 N/A

Powered by AerisWeather